User: anonymous   Login
Location: ?????????
(38.0736°N, 23.2119°E)
Time: 08:26:30
(UTC+00:00)
Language:

Cosmos 1354 Rocket - Orbit

View from above orbital plane
View from above orbital plane
View from above satellite
View from above satellite

Ground track
Ground track

The orbit data is extracted from the following two-line orbital elements,

1 13149U 82037B   24169.47242564  .00000284  00000-0  10651-3 0  9994
2 13149  74.0413 244.6198 0012926 186.9928 173.1047 14.36011633204227
Epoch (UTC): 17 June 2024 11:20:17
Eccentricity: 0.0012926
inclination: 74.0413°
perigee height: 762 km
apogee height: 781 km
right ascension of ascending node: 244.6198°
argument of perigee: 186.9928°
revolutions per day: 14.36011633
mean anomaly at epoch: 173.1047°
orbit number at epoch: 20422

The dashed part of the orbit path shows where the satellite is in the earth's shadow,  

DLR